Content
SEND FEEDBACK

Daily
Averages
Monthly
Summary
United Kingdom

EPSOM, ENGLAND


Home > Europe > United Kingdom > England
Elevation: 75 feet     Latitude: 51 21N     Longitude: 000 28W

WEATHER
 
SELECT A DAY
Number of Records: 350,839;   Date Range: 7/1/96 - 10/20/14
 
SHARE

PRINT THIS DATA

[ ← Previous Day ]
WEATHER ALMANAC - OCTOBER 12, 2013
[ Next Day → ]
[ °C ]   °F
Weather ElementAverageHighLow
Temperature53.2 °F57.2 °F (2:50 pm)48.2 °F (8:50 pm)
Dewpoint47.2 °F53.6 °F (4:20 am)42 °F (3:50 pm)
Humidity79.9 %100 % (5:50 am)48 % (3:50 pm)
Barometer30.06 in30.14 in (12:50 pm)29.98 in (3:20 am)
Wind Speed7.7 mph15 mph (3:50 am)
Wind Gust24.2 mph (3:50 am)
Weather ElementAverage
Visibility7.2 mi
Wind DirectionESE (127 °)

Weather ElementTotal
Precipitation---
Heating Degree Days12.3 (Base 65)
Growing Degree Days2.7 (Base 50)
Averaged from 54 records on October 12, 2013
WEATHER CONDITIONS BREAKOUT
WIND DIRECTION BREAKOUT
WEATHER BY HOUR - OCTOBER 12, 2013
[ °C ]   °F
Local TimeTemperatureDewpointHumidityBarometerVisibilityWind DirectionWind SpeedGust SpeedPrecipitationEventsConditions
12:50 AM54.0 °F51.0 °F86 %30.05 in11.0 miNNE (20°)12.7 mphRainRain
12:50 AM55.4 °F51.8 °F88 %30.04 in4.3 miNNE (20°)10.4 mphRainLight Rain
1:20 AM53.6 °F51.8 °F94 %30.04 in3.7 miNNE (20°)11.5 mphRainLight Rain
1:50 AM53.6 °F51.8 °F94 %30.04 in3.1 miNorth (10°)11.5 mphLight Drizzle
2:20 AM53.6 °F51.8 °F94 %30.01 in4.3 miNorth (10°)10.4 mphRainLight Rain
2:50 AM55.4 °F51.8 °F88 %30.01 in5.6 miNorth (10°)11.5 mphMostly Cloudy
3:20 AM55.4 °F51.8 °F88 %29.98 in6.2 miNorth (10°)11.5 mph23.0 mphMostly Cloudy
3:50 AM55.4 °F51.8 °F88 %29.98 in6.2 miNorth (10°)12.7 mph24.2 mphMostly Cloudy
3:50 AM55.0 °F52.0 °F84 %29.99 in11.0 miNorth (10°)15.0 mphOvercast
4:20 AM55.4 °F53.6 °F94 %29.98 in4.3 miNNE (20°)12.7 mphDrizzle
4:50 AM55.4 °F53.6 °F94 %29.98 in3.7 miNNE (30°)10.4 mphDrizzle
5:20 AM55.4 °F53.6 °F94 %29.98 in2.5 miNE (40°)11.5 mphRainLight Rain
5:50 AM53.6 °F53.6 °F100 %30.01 in5.6 miEast (90°)9.2 mphRainLight Rain
6:20 AM51.8 °F51.8 °F100 %30.04 in3.7 miEast (90°)10.4 mphRainLight Rain
6:50 AM51.8 °F50.0 °F94 %30.04 in6.2 miEast (90°)10.4 mphRainLight Rain
7:20 AM50.0 °F50.0 °F100 %30.06 in6.2 miEast (80°)8.1 mphPartly Cloudy
7:50 AM50.0 °F48.2 °F94 %30.06 in6.2 miEast (100°)11.5 mphPartly Cloudy
8:20 AM50.0 °F48.2 °F94 %30.09 in6.2 miEast (100°)9.2 mphPartly Cloudy
8:50 AM50.0 °F46.4 °F87 %30.09 in6.2 miEast (100°)10.4 mphPartly Cloudy
9:20 AM50.0 °F44.6 °F82 %30.12 in6.2 miEast (100°)9.2 mphPartly Cloudy
9:50 AM51.8 °F44.6 °F76 %30.12 inEast (90°)8.1 mphClear
9:50 AM52.0 °F44.0 °F65 %30.12 in19.0 miEast (90°)6.9 mph
10:20 AM53.6 °F44.6 °F72 %30.12 in6.2 miEast (90°)9.2 mphPartly Cloudy
10:50 AM55.4 °F44.6 °F67 %30.12 in6.2 miEast (80°)9.2 mphPartly Cloudy
11:20 AM55.4 °F44.6 °F67 %30.12 in6.2 miENE (70°)6.9 mphPartly Cloudy
11:50 AM53.6 °F44.6 °F72 %30.12 in6.2 miEast (80°)9.2 mphPartly Cloudy
12:20 PM55.4 °F44.6 °F67 %30.12 in6.2 miEast (90°)8.1 mphScattered Clouds
12:50 PM55.4 °F44.6 °F67 %30.12 in6.2 miENE (70°)6.9 mphScattered Clouds
12:50 PM55.0 °F43.0 °F54 %30.14 in19.0 miNE (50°)6.9 mphPartly Cloudy
1:20 PM55.4 °F44.6 °F67 %30.12 in6.2 miENE (70°)4.6 mphScattered Clouds
1:50 PM55.4 °F44.6 °F67 %30.12 in6.2 miENE (70°)6.9 mphScattered Clouds
2:20 PM55.4 °F44.6 °F67 %30.12 in6.2 miEast (80°)5.8 mphScattered Clouds
2:50 PM57.2 °F42.8 °F59 %30.12 in6.2 miEast (90°)6.9 mphScattered Clouds
3:20 PM57.2 °F44.6 °F63 %30.09 in6.2 miEast (100°)5.8 mphScattered Clouds
3:50 PM57.2 °F42.8 °F59 %30.09 in6.2 miVariable3.5 mphPartly Cloudy
3:50 PM56.0 °F42.0 °F48 %30.09 in22.0 miNNE (30°)3.5 mph
4:20 PM55.4 °F42.8 °F63 %30.09 in6.2 miVariable3.5 mphPartly Cloudy
4:50 PM55.4 °F44.6 °F67 %30.06 in6.2 miVariable3.5 mphPartly Cloudy
5:20 PM55.4 °F44.6 °F67 %30.06 in6.2 miNorth (360°)4.6 mphPartly Cloudy
5:50 PM53.6 °F44.6 °F72 %30.09 in6.2 miNorth (350°)2.3 mphPartly Cloudy
6:20 PM51.8 °F44.6 °F76 %30.09 in6.2 miNNW (340°)2.3 mphPartly Cloudy
6:50 PM51.8 °F46.4 °F82 %30.06 in6.2 miWNW (300°)3.5 mphPartly Cloudy
6:50 PM53.0 °F44.0 °F63 %30.07 in14.0 miWNW (290°)3.5 mphScattered Clouds
7:20 PM51.8 °F46.4 °F82 %30.06 inWNW (300°)3.5 mphClear
7:50 PM50.0 °F46.4 °F87 %30.06 inWNW (300°)3.5 mphClear
8:20 PM51.8 °F46.4 °F82 %30.06 inNW (310°)3.5 mphClear
8:50 PM48.2 °F46.4 °F93 %30.04 inWNW (290°)5.8 mphClear
9:20 PM50.0 °F46.4 °F87 %30.04 inWest (280°)4.6 mphClear
9:50 PM50.0 °F46.4 °F87 %30.04 inWest (280°)6.9 mphClear
9:50 PM51.0 °F46.0 °F77 %30.05 in12.0 miWest (270°)5.8 mphMostly Cloudy
10:20 PM50.0 °F46.4 °F87 %30.04 inWest (280°)5.8 mphClear
10:50 PM50.0 °F46.4 °F87 %30.04 inWest (280°)6.9 mphClear
11:20 PM50.0 °F46.4 °F87 %30.04 inWest (260°)6.9 mphClear
11:50 PM50.0 °F48.2 °F94 %30.01 inWest (260°)8.1 mphClear
Hourly data recorded from EGLL, located miles away from Epsom, England







STORIES FROM OUR PARTNERS